Location: Unspecified
(0.0000°N, 0.0000°E)
Time: 07:25:44
(UTC+00:00)

AO-40 - Pass Details

Date: 31 January 2022
Orbit: 908 x 58912 km, 6.9° (Epoch: 25 May)

Event Time Altitude Azimuth Distance (km) Brightness Sun altitude
Rises 15:12:53 0° 274° (W) 5,939 ? 42.6°
Reaches altitude 10° 15:15:05 10° 275° (W) 5,589 ? 42.1°
Maximum altitude 19:41:15 84° 357° (N) 46,759 ? -20.9°
Drops below altitude 10° 02:19:09 10° 273° (W) 62,371 ? -54.6°
Sets 03:11:13 0° 272° (W) 61,583 ? -43.0°
